Regional Weather Roundup
Issued by NWS

Home | Current Version | Previous Version | Graphics & Text | Print | Product List | Glossary On
Versions: 1 2 3 4 5 6 7 8 9 10 11 12 13 14 15 16 17 18 19 20 21 22 23 24 25 26 27 28 29 30 31 32 33 34 35 36 37 38 39 40 41 42 43 44 45 46 47 48 49 50
000
ASUS43 KBIS 251502
RWRND

NORTH DAKOTA REGIONAL WEATHER ROUNDUP
NATIONAL WEATHER SERVICE BISMARCK ND
1000 AM CDT SUN SEP 25 2016

NOTE: "FAIR" INDICATES FEW OR NO CLOUDS BELOW 12,000 FEET WITH NO
SIGNIFICANT WEATHER AND/OR OBSTRUCTIONS TO VISIBILITY.


NDZ001>003-009>011-017-251600-
NORTHWEST NORTH DAKOTA

CITY           SKY/WX    TMP DP  RH WIND       PRES   REMARKS
WILLISTON      SUNNY     51  39  63 NW21G28   30.16R
MINOT          MOSUNNY   52  43  71 W26G40    29.98R
MINOT AFB      MOSUNNY   51  43  74 NW29G38   29.96R
$$

NDZ018>021-031>035-040>046-251600-
SOUTHWEST NORTH DAKOTA

CITY           SKY/WX    TMP DP  RH WIND       PRES   REMARKS
BISMARCK       PTSUNNY   53  45  74 NW16G33   30.03R
DICKINSON      SUNNY     48  39  71 NW21G31   30.15R
GARRISON         N/A     50  44  80 NW29G41   30.01R
HETTINGER ARPT SUNNY     50  39  66 W21G32    30.21R
$$

NDZ004>008-012>016-024-026-027-054-251600-
NORTHEAST NORTH DAKOTA

CITY           SKY/WX    TMP DP  RH WIND       PRES   REMARKS
GRAND FORKS    LGT RAIN  56  54  93 W13       29.67F
GRND FRKS AFB  LGT RAIN  57  55  94 W14G24    29.69S
DEVILS LAKE    CLOUDY    52  50  93 NW22G32   29.79R
$$

NDZ022-023-025-028>030-036>039-047>053-251600-
SOUTHEAST NORTH DAKOTA

CITY           SKY/WX    TMP DP  RH WIND       PRES   REMARKS
FARGO          CLOUDY    57  51  80 W18       29.77R
JAMESTOWN      CLOUDY    53  49  86 NW28G36   29.86R
$$




USA.gov is the U.S. government's official web portal to all federal, state and local government web resources and services.